Flag for Austria Weather past 2 weeks in St. Pölten, Lower Austria, Austria

Now
73 °F

Broken clouds.


Feels Like: 76 °F
Forecast: 59 / 83 °F
Wind: 3 mph from Southwest

Location: Tulln Airport

Current Time: Jun 30, 2015 at 9:43:18 PM

Latest Report: Jun 30, 2015 at 8:50 PM


Visibility: 19 mi

Pressure: 30.12 "Hg

Humidity: 61%

Dew point: 59 °F

Location of St. PöltenLocation

Historic Weather in St. Pölten — Graph

°F

St. Pölten temperature yesterday

Maximum temperature yesterday: 77 °F (at 4:50 PM)
Minimum temperature yesterday: 52 °F (at 5:50 AM)
Average temperature yesterday: 68 °F

Past Weeks' High & Low Weather Summary

 TemperatureHumidityPressure
High84 °F (Jun 30, 2:50 PM)100% (Jun 20, 5:50 AM)30.27 "Hg (Jun 20, 5:50 AM)
Low48 °F (Jun 25, 5:50 AM)32% (Jun 30, 1:50 PM)29.80 "Hg (Jun 23, 6:50 AM)
Average65 °F67%30.07 "Hg
* Reported Jun 15 7:50 PM — Jun 30 7:50 PM, St. Pölten, Weather by CustomWeather, © 2015

Note: Actual official high and low records may vary slightly from our data, if they occured in-between our weather recording intervals... More about our weather records

Advertising

St. Pölten weather history for previous 24 hours

 ConditionsComfort  
Time TempWeatherWind HumidityBarometerVisibility
7:50 PM
Tue, Jun 30
75 °FPartly sunny.3 mph61%30.12 "Hg19 mi
6:50 PM77 °FBroken clouds.3 mph54%30.12 "Hg25 mi
5:50 PM77 °FPartly sunny.6 mph51%30.12 "Hg31 mi
4:50 PM79 °FPartly sunny.9 mph45%30.12 "Hg31 mi
3:50 PM84 °FPartly sunny.6 mph35%30.12 "Hg31 mi
2:50 PM84 °FPartly sunny.5 mph33%30.12 "Hg31 mi
1:50 PM82 °FPartly sunny.3 mph32%30.15 "Hg31 mi
12:50 PM79 °FPartly sunny.3 mph42%30.18 "Hg31 mi
11:50 AM77 °FPartly sunny.2 mph57%30.18 "Hg31 mi
10:50 AM73 °FPartly sunny.2 mph61%30.18 "Hg31 mi
9:50 AM72 °FPartly sunny.3 mph61%30.18 "Hg31 mi
8:50 AM66 °FPartly sunny.3 mph78%30.18 "Hg31 mi
7:50 AM61 °FPartly sunny.1 mph88%30.18 "Hg31 mi
6:50 AM57 °FPartly sunny.1 mph94%30.18 "Hg31 mi
5:50 AM54 °FPassing clouds.1 mph100%30.18 "Hg25 mi
10:50 PM
Mon, Jun 29
61 °FPassing clouds.2 mph83%30.18 "Hg25 mi
9:50 PM64 °FPassing clouds.2 mph78%30.15 "Hg25 mi
Weather by CustomWeather, © 2015

See weather overviewHow to use our weather pages